FENGYUN 1C DEB, 33748

Orbit data source: Space-Track

FENGYUN 1C DEB, 33748 is space debris in SSO originally from a launch on Mon, 10 May 1999 UTC launched from the Taiyaun Space Center, China (TSC). Fengyun 1C debris stems from the Chinese weather satellite Fengyun-1C, which was intentionally destroyed by a Chinese anti-satellite missile in 2007. This event dramatically increased the amount of space debris, with thousands of trackable fragments posing hazards to satellites and human spaceflight. The Fengyun 1C debris cloud has become a focal point in discussions about space sustainability and the need for international regulations to prevent the creation of new debris.

Loading next visibility...
Identifier
33748, 1999-025DJM
Orbit
SSO
Country
Flag of CNCN / PRC
Related business
Manufacturer
Unknown
Mission
Spacecraft
Bus & Motor
Unknown
Mass
Unknown
Launch date (UTC)
1999-05-10 (27 years ago)
Launch vehicle
Unknown
Launch site
Taiyaun Space Center, China (TSC)
Object type
Payload
Rocket body
Debris
Shape & HBR
Unknown shape, 0.1 m
Radar Cross Section
Small (<0.1 m²)

Expand to show TLE details & history
Last TLE update: 2 days ago

TLE from 2 days ago
0 FENGYUN 1C DEB
1 33748U 99025DJM 26236.10103504  .00001778  00000-0  65577-3 0  9999
2 33748  98.5633 289.5982 0034548 208.2512 151.6799 14.33424223950367
Epoch: 2026-08-24T02:25Z
TLE epoch observation values (Epoch: 2026-08-24T02:25:29.427Z)
Latitude
-0.00005°
Longitude
-79.16198°
Altitude
805.04 km
Speed
7.44 km/s
True Right ascension
19h 18m 23s
True Declination
0° 00' 00"
Sunlit
Object was in full shadow at epoch
Visualization orbit readout
Latitude
Unknown
Longitude
Unknown
Altitude
Unknown
Speed
Unknown
Apparent Right ascension
Unknown
Apparent Declination
Unknown
Sunlit
N/A
Visualization observer readout
Local Sidereal Time
00:33:59
Azimuth
Unknown
Elevation
Unknown
Doppler factor
Unknown
Orbital elements
Apogee altitude
802.163 km
Perigee altitude
752.72 km
Semi-major axis
7,155.578 km
Eccentricity
0.00345
Inclination
98.5633°
RAAN
289.5982°
Arg. of periapsis
208.2512°
True anomaly
151.867°
Mean anomaly
151.6799°
Eccentric anomaly
151.77352°
Mean motion
3.58572 °/min
Orbital period
100.4 mins
BSTAR
0.00065577
Loading maneuver chart data...
Computing Atmospheric mass density...
Loading historical data...
Loading historical data...
Loading historical data...
Loading historical data...
Loading historical data...
Loading historical data...
Loading historical data...

Documentation

Showing up to 5 results
|